Content
SEND FEEDBACK

Daily
Averages
Monthly
Summary
Netherlands

MAASTRICHT, NETHERLANDS


Home > Europe > Netherlands
Elevation: 380 feet     Latitude: 50 55N     Longitude: 005 47E

WEATHER
 
SELECT A DAY
Number of Records: 311,080;   Date Range: 7/1/96 - 11/26/14
 
SHARE

PRINT THIS DATA

[ ← Previous Day ]
WEATHER ALMANAC - FEBRUARY 1, 2013
[ Next Day → ]
[ °C ]   °F
Weather ElementAverageHighLow
Temperature42.3 °F45 °F (1:00 am)37.4 °F (10:25 pm)
Dewpoint40.1 °F44.6 °F (6:25 pm)35.6 °F (10:55 pm)
Humidity91.4 %100 % (1:55 pm)76 % (8:25 am)
Barometer29.59 in29.94 in (1:00 am)29.30 in (6:25 pm)
Wind Speed12 mph18.4 mph (4:55 am)
Weather ElementAverage
Visibility6.1 mi
Wind DirectionWSW (233.9 °)

Weather ElementTotal
Precipitation---
Heating Degree Days23.8 (Base 65)
Averaged from 51 records on February 1, 2013
WEATHER CONDITIONS BREAKOUT
WIND DIRECTION BREAKOUT
WEATHER BY HOUR - FEBRUARY 1, 2013
[ °C ]   °F
Local TimeTemperatureDewpointHumidityBarometerVisibilityWind DirectionWind SpeedGust SpeedPrecipitationEventsConditions
12:55 AM44.6 °F41.0 °F87 %29.92 in6.2 miWSW (240°)13.8 mphMostly Cloudy
1:00 AM45.0 °F40.0 °F78 %29.94 in7.0 miSW (230°)15.7 mphPartly Cloudy
1:25 AM44.6 °F41.0 °F87 %29.92 in6.2 miSW (230°)15.0 mphOvercast
1:55 AM44.6 °F41.0 °F87 %29.89 in6.2 miSW (230°)12.7 mphMostly Cloudy
2:55 AM44.6 °F41.0 °F87 %29.89 in6.2 miSW (230°)12.7 mphOvercast
3:25 AM44.6 °F41.0 °F87 %29.86 in6.2 miSW (230°)17.3 mphOvercast
3:55 AM44.6 °F39.2 °F81 %29.86 in6.2 miSW (230°)16.1 mphOvercast
4:00 AM45.0 °F40.0 °F77 %29.88 in7.0 miSW (230°)15.7 mphOvercast
4:55 AM44.6 °F41.0 °F87 %29.83 in6.2 miSW (230°)18.4 mphPartly Cloudy
5:25 AM44.6 °F41.0 °F87 %29.83 in6.2 miSW (220°)17.3 mphScattered Clouds
5:55 AM44.6 °F41.0 °F87 %29.80 in6.2 miSW (220°)17.3 mphPartly Cloudy
6:25 AM44.6 °F41.0 °F87 %29.80 in6.2 miSW (220°)16.1 mphMostly Cloudy
6:55 AM44.6 °F41.0 °F87 %29.77 in6.2 miSW (220°)13.8 mphMostly Cloudy
7:00 AM45.0 °F40.0 °F78 %29.79 in8.0 miSW (220°)13.4 mphPartly Cloudy
7:25 AM44.6 °F41.0 °F87 %29.77 in6.2 miSW (220°)12.7 mphOvercast
7:55 AM44.6 °F39.2 °F81 %29.74 in6.2 miSW (220°)12.7 mphMostly Cloudy
8:25 AM44.6 °F37.4 °F76 %29.74 in6.2 miSW (220°)15.0 mphScattered Clouds
8:55 AM42.8 °F39.2 °F87 %29.71 in6.2 miSW (220°)17.3 mphDrizzle
9:25 AM42.8 °F39.2 °F87 %29.71 in6.2 miSSW (210°)12.7 mphRainLight Rain
9:55 AM41.0 °F39.2 °F93 %29.68 in6.2 miSSW (210°)13.8 mphRainLight Rain
10:00 AM41.0 °F39.0 °F90 %29.70 in10.0 miSSW (210°)13.4 mphRainLight Rain
10:25 AM41.0 °F39.2 °F93 %29.68 in6.2 miSSW (210°)12.7 mphRainLight Rain
10:55 AM41.0 °F39.2 °F93 %29.65 in6.2 miSSW (200°)9.2 mphRainLight Rain
11:25 AM41.0 °F39.2 °F93 %29.62 in6.2 miSSW (200°)10.4 mphRainLight Rain Showers
11:55 AM41.0 °F39.2 °F93 %29.59 in6.2 miSSW (200°)10.4 mphRainLight Rain
12:25 PM41.0 °F39.2 °F93 %29.56 in6.2 miSouth (190°)10.4 mphRainLight Rain
12:55 PM41.0 °F39.2 °F93 %29.53 in6.2 miSouth (190°)9.2 mphRainLight Rain
1:00 PM41.0 °F39.0 °F91 %29.55 in13.0 miSouth (190°)8.9 mphRainLight Rain
1:25 PM41.0 °F39.2 °F93 %29.50 in6.2 miSSW (200°)8.1 mphRainLight Rain Showers
1:55 PM41.0 °F41.0 °F100 %29.50 in6.2 miSouth (180°)10.4 mphRainLight Rain
2:25 PM41.0 °F41.0 °F100 %29.44 in6.2 miSouth (190°)12.7 mphRainLight Rain
2:55 PM42.8 °F42.8 °F100 %29.44 in6.2 miSSW (210°)10.4 mphDrizzle
3:25 PM42.8 °F42.8 °F100 %29.42 inSSW (200°)11.5 mphHeavy Drizzle
3:55 PM42.8 °F42.8 °F100 %29.39 in1.6 miSSW (200°)10.4 mphRainRain
4:00 PM43.0 °F43.0 °F98 %29.40 in1.0 miSSW (200°)8.9 mphRainDrizzle
4:55 PM42.8 °F42.8 °F100 %29.36 in6.2 miSouth (190°)9.2 mphDrizzle
5:25 PM42.8 °F42.8 °F100 %29.33 in6.2 miSouth (190°)11.5 mphRainLight Drizzle
5:55 PM42.8 °F42.8 °F100 %29.33 in4.3 miSSW (200°)11.5 mphHeavy Drizzle
6:25 PM44.6 °F44.6 °F100 %29.30 in3.7 miSSW (210°)10.4 mphDrizzle
6:55 PM44.6 °F44.6 °F100 %29.30 in5.0 miWSW (250°)6.9 mphRainLight Rain
7:00 PM44.0 °F44.0 °F98 %29.32 in5.0 miWSW (240°)8.9 mphRainHeavy Rain
7:25 PM42.8 °F41.0 °F93 %29.30 in6.2 miNNW (330°)13.8 mphRainLight Rain
7:55 PM41.0 °F39.2 °F93 %29.33 in6.2 miNNW (340°)15.0 mphMostly Cloudy
8:55 PM39.2 °F37.4 °F93 %29.36 in6.2 miNW (320°)11.5 mphMostly Cloudy
9:25 PM39.2 °F37.4 °F93 %29.39 in6.2 miNW (320°)9.2 mphOvercast
9:55 PM39.2 °F37.4 °F93 %29.39 in6.2 miNW (310°)9.2 mphOvercast
10:00 PM38.0 °F37.0 °F93 %29.42 in6.0 miNW (320°)11.2 mphPartly Cloudy
10:25 PM37.4 °F37.4 °F100 %29.42 in6.2 miNW (320°)9.2 mphOvercast
10:55 PM37.4 °F35.6 °F93 %29.42 in5.6 miNW (320°)8.1 mphOvercast
11:25 PM37.4 °F35.6 °F93 %29.42 in5.0 miNW (310°)6.9 mphOvercast
11:55 PM37.4 °F35.6 °F93 %29.42 in5.0 miNW (310°)4.6 mphMostly Cloudy
Hourly data recorded from EHBK, located miles away from Maastricht, Netherlands







STORIES FROM OUR PARTNERS